1521583200.31,11259,10.44,72228.0,-16.15,-17.03,-16.93,0,*65
1521583201.57,11260,10.44,72228.3,-16.17,-17.03,-16.93,0,*6D
1521583202.79,11261,10.44,72230.5,-16.19,-16.97,-16.97,0,*6A
1521583204.01,11262,10.44,72228.3,-16.19,-16.97,-16.97,0,*69
1521583205.23,11263,10.44,72228.3,-16.19,-16.93,-16.97,0,*6C
1521583206.47,11264,10.44,72230.5,-16.19,-17.07,-16.97,0,*67
1521583207.71,11265,10.44,72228.0,-16.17,-16.93,-16.93,0,*60
1521583208.95,11266,10.44,72228.8,-16.17,-16.89,-16.93,0,*68
1521583210.19,11267,10.44,72230.0,-16.17,-16.93,-16.93,0,*62
1521583211.45,11268,10.44,72230.8,-16.17,-17.07,-16.93,0,*61
1521583212.72,11269,10.44,72228.5,-16.17,-17.03,-16.93,0,*64
1521583213.94,11270,10.44,72232.0,-16.19,-16.93,-16.97,0,*6E
1521583215.16,11271,10.44,72226.8,-16.19,-16.97,-16.97,0,*6B
1521583216.41,11272,10.44,72224.8,-16.19,-17.07,-16.97,0,*60
1521583217.62,11273,10.44,72228.8,-16.19,-16.93,-16.97,0,*6D
1521583218.84,11274,10.44,72224.5,-16.19,-16.97,-16.97,0,*6E
1521583220.06,11275,10.44,72228.5,-16.19,-16.97,-16.97,0,*6F
1521583221.28,11276,10.44,72230.0,-16.19,-16.97,-16.97,0,*6C
1521583222.5,11277,10.44,72228.8,-16.19,-16.97,-16.97,0,*6D
1521583223.75,11278,10.44,72228.3,-16.19,-17.07,-16.93,0,*6E
1521583224.98,11279,10.44,72230.8,-16.17,-16.93,-16.93,0,*6D
1521583226.2,11280,10.44,72226.0,-16.19,-16.97,-16.97,0,*65
1521583227.42,11281,10.44,72230.8,-16.19,-16.97,-16.97,0,*64
1521583228.64,11282,10.44,72226.8,-16.19,-16.97,-16.97,0,*67
1521583229.88,11283,10.44,72224.5,-16.17,-16.93,-16.93,0,*68
1521583231.11,11284,10.44,72226.8,-16.17,-16.93,-16.93,0,*6F
1521583232.33,11285,10.44,72226.3,-16.19,-16.93,-16.97,0,*64
1521583233.55,11286,10.44,72230.8,-16.19,-16.97,-16.97,0,*63
1521583234.77,11287,10.44,72228.3,-16.19,-16.97,-16.93,0,*66
1521583236.01,11288,10.44,72228.5,-16.19,-17.07,-16.97,0,*65
1521583237.23,11289,10.44,72228.3,-16.19,-16.97,-16.97,0,*6C
1521583238.48,11290,10.44,72226.8,-16.19,-17.07,-16.97,0,*6C
1521583239.73,11291,10.44,72222.5,-16.19,-17.07,-16.97,0,*6D
1521583240.95,11292,10.44,72226.0,-16.19,-16.97,-16.97,0,*66
1521583242.17,11293,10.44,72224.0,-16.19,-16.97,-16.97,0,*67
1521583243.39,11294,10.44,72230.5,-16.19,-16.97,-16.97,0,*60
1521583244.61,11295,10.44,72224.8,-16.19,-16.97,-16.97,0,*61
1521583245.82,11296,10.44,72224.3,-16.19,-16.97,-16.93,0,*66
1521583247.04,11297,10.44,72224.5,-16.19,-16.97,-16.97,0,*63
1521583248.26,11298,10.44,72226.5,-16.19,-16.97,-16.97,0,*6C
1521583249.53,11299,10.44,72228.5,-16.17,-17.03,-16.93,0,*6B
1521583250.77,11300,10.44,72224.0,-16.17,-16.93,-16.93,0,*62
1521583251.98,11301,10.44,72228.8,-16.15,-16.93,-16.89,0,*6A
1521583253.2,11302,10.44,72232.0,-16.19,-16.97,-16.97,0,*6E
1521583254.42,11303,10.44,72234.5,-16.19,-16.97,-16.97,0,*6F
1521583255.63,11304,10.44,72230.8,-16.15,-16.93,-16.93,0,*64
1521583256.87,11305,10.44,72228.0,-16.15,-16.93,-17.03,0,*6D
1521583258.1,11306,10.44,72226.5,-16.17,-16.93,-16.93,0,*64
1521583259.34,11307,10.44,72224.5,-16.17,-16.93,-16.93,0,*65
1521583260.58,11308,10.44,72226.8,-16.17,-16.93,-16.93,0,*6A
1521583261.78,11309,10.44,72228.0,-16.15,-16.93,-16.93,0,*69
1521583263.0,11310,10.44,72228.8,-16.15,-16.93,-16.93,0,*61
1521583264.23,11311,10.44,72224.5,-16.17,-16.93,-16.93,0,*62
1521583265.47,11312,10.44,72228.3,-16.17,-16.93,-16.93,0,*61
1521583266.72,11313,10.44,72230.0,-16.19,-16.97,-17.07,0,*66
1521583267.98,11314,10.44,72228.0,-16.19,-16.97,-17.07,0,*61
1521583269.24,11315,10.44,72230.5,-16.17,-16.93,-17.03,0,*6E
1521583270.48,11316,10.44,72230.0,-16.17,-16.93,-16.93,0,*65
1521583271.72,11317,10.44,72230.0,-16.17,-16.93,-16.89,0,*6F
1521583272.95,11318,10.44,72232.3,-16.17,-16.93,-16.93,0,*6B
1521583274.22,11319,10.44,72232.8,-16.17,-17.03,-16.89,0,*69
1521583275.49,11320,10.44,72232.3,-16.17,-17.03,-16.93,0,*68
1521583276.72,11321,10.44,72230.8,-16.17,-16.93,-16.93,0,*61
1521583277.96,11322,10.44,72228.8,-16.17,-16.89,-16.93,0,*69
1521583279.2,11323,10.44,72230.8,-16.17,-16.93,-16.93,0,*63
1521583280.41,11324,10.44,72232.0,-16.15,-16.93,-16.93,0,*66
1521583281.65,11325,10.44,72236.3,-16.17,-16.89,-16.93,0,*6E
1521583282.89,11326,10.44,72232.5,-16.17,-16.93,-16.89,0,*6D
1521583284.12,11327,10.44,72228.3,-16.17,-16.93,-16.89,0,*6C
1521583285.36,11328,10.44,72230.8,-16.17,-16.93,-16.93,0,*68
1521583286.6,11329,10.44,72228.0,-16.17,-16.93,-16.89,0,*62
1521583287.81,11330,10.44,72228.3,-16.15,-16.93,-16.93,0,*63
1521583289.07,11331,10.44,72228.5,-16.17,-16.93,-17.03,0,*68
1521583290.28,11332,10.44,72234.3,-16.15,-16.93,-16.93,0,*61
1521583291.52,11333,10.44,72230.3,-16.17,-16.93,-16.93,0,*62
1521583292.79,11334,10.44,72228.0,-16.17,-17.03,-16.93,0,*6D
1521583294.02,11335,10.44,72230.5,-16.17,-16.93,-16.93,0,*64
1521583295.26,11336,10.44,72230.8,-16.17,-16.93,-16.93,0,*67
1521583296.5,11337,10.44,72228.3,-16.17,-16.93,-16.93,0,*66
1521583297.73,11338,10.44,72228.5,-16.17,-16.93,-16.93,0,*69
1521583298.97,11339,10.44,72230.5,-16.17,-16.93,-16.93,0,*68
1521583300.21,11340,10.44,72234.8,-16.17,-16.93,-16.93,0,*66
1521583301.47,11341,10.44,72228.5,-16.17,-16.93,-17.03,0,*6F
1521583302.71,11342,10.44,72230.8,-16.17,-16.93,-16.89,0,*6F
1521583303.95,11343,10.44,72232.0,-16.17,-16.93,-16.93,0,*65
1521583305.16,11344,10.44,72232.5,-16.15,-16.93,-16.93,0,*60
1521583306.37,11345,10.44,72232.8,-16.15,-16.93,-16.93,0,*61
1521583307.61,11346,10.44,72232.3,-16.17,-16.89,-16.93,0,*6B
1521583308.85,11347,10.44,72234.5,-16.17,-16.89,-16.89,0,*61
1521583310.08,11348,10.44,72232.3,-16.17,-16.93,-16.93,0,*6E
1521583311.35,11349,10.44,72232.0,-16.17,-17.03,-16.93,0,*67
1521583312.57,11350,10.44,72234.0,-16.15,-16.89,-16.93,0,*6E
1521583313.8,11351,10.44,72236.0,-16.17,-16.93,-16.93,0,*66
1521583315.04,11352,10.44,72236.5,-16.17,-16.93,-16.93,0,*65
1521583316.28,11353,10.44,72232.3,-16.17,-16.89,-16.93,0,*6F
1521583317.49,11354,10.44,72230.3,-16.15,-16.93,-16.89,0,*6A
1521583318.72,11355,10.44,72234.3,-16.17,-16.93,-16.93,0,*62
1521583319.99,11356,10.44,72234.8,-16.17,-16.93,-17.03,0,*69
1521583321.23,11357,10.44,72234.8,-16.17,-16.93,-16.93,0,*60
1521583322.5,11358,10.44,72234.0,-16.17,-16.93,-17.03,0,*67
1521583323.73,11359,10.44,72234.5,-16.17,-16.93,-16.93,0,*6E
1521583325.0,11360,10.44,72230.8,-16.17,-17.03,-16.89,0,*67
1521583326.21,11361,10.44,72234.8,-16.15,-16.93,-16.89,0,*6C
1521583327.45,11362,10.44,72232.0,-16.17,-16.93,-16.89,0,*6D
1521583328.66,11363,10.44,72234.8,-16.15,-16.93,-16.93,0,*65
1521583329.92,11364,10.44,72234.3,-16.17,-16.93,-17.03,0,*68
1521583331.16,11365,10.44,72234.3,-16.17,-16.93,-16.93,0,*61
1521583332.4,11366,10.44,72230.0,-16.15,-17.03,-16.93,0,*68
1521583333.64,11367,10.44,72230.8,-16.17,-16.93,-16.89,0,*68
1521583334.88,11368,10.44,72232.5,-16.17,-16.93,-16.89,0,*67
1521583336.11,11369,10.44,72228.5,-16.17,-16.93,-16.89,0,*66
1521583337.38,11370,10.44,72232.5,-16.15,-17.03,-17.03,0,*67
1521583338.63,11371,10.44,72232.5,-16.17,-16.89,-16.89,0,*64
1521583339.86,11372,10.44,72234.8,-16.17,-16.93,-16.93,0,*67
1521583341.13,11373,10.44,72234.8,-16.17,-16.93,-17.03,0,*6E
1521583342.34,11374,10.44,72234.5,-16.15,-16.89,-16.93,0,*68
1521583343.55,11375,10.44,72234.5,-16.15,-16.93,-16.93,0,*62
1521583344.76,11376,10.44,72234.3,-16.15,-16.93,-16.93,0,*61
1521583346.0,11377,10.44,72232.3,-16.17,-16.93,-16.89,0,*69
1521583347.24,11378,10.44,72232.5,-16.17,-16.93,-16.93,0,*6D
1521583348.47,11379,10.44,72232.5,-16.17,-16.93,-16.93,0,*6C
1521583349.69,11380,10.44,72232.8,-16.15,-16.89,-16.93,0,*63
1521583350.92,11381,10.44,72234.5,-16.17,-16.93,-16.93,0,*6B
1521583352.19,11382,10.44,72230.0,-16.17,-17.03,-16.93,0,*60
1521583353.4,11383,10.44,72228.5,-16.15,-16.93,-16.93,0,*6B
1521583354.64,11384,10.44,72232.5,-16.17,-16.93,-16.89,0,*65
1521583355.87,11385,10.44,72232.8,-16.17,-16.93,-16.89,0,*64
1521583357.08,11386,10.44,72228.5,-16.15,-16.93,-16.93,0,*6E
1521583358.29,11387,10.38,72226.0,-16.15,-16.93,-16.93,0,*6F
1521583359.53,11388,10.44,72230.5,-16.17,-16.93,-16.89,0,*69
1521583360.8,11389,10.44,72230.8,-16.17,-17.03,-16.93,0,*6B
1521583362.04,11390,10.44,72230.3,-16.15,-17.03,-16.89,0,*6A
1521583363.28,11391,10.44,72232.8,-16.15,-17.03,-16.93,0,*60
1521583364.49,11392,10.44,72232.8,-16.15,-16.93,-16.89,0,*60
1521583365.73,11393,10.44,72232.0,-16.15,-16.93,-17.03,0,*62
1521583366.97,11394,10.44,72230.0,-16.15,-17.03,-16.93,0,*65
1521583368.21,11395,10.44,72232.3,-16.15,-17.03,-16.93,0,*64
1521583369.42,11396,10.44,72238.0,-16.15,-16.93,-16.93,0,*6F
1521583370.66,11397,10.44,72234.3,-16.15,-16.93,-17.03,0,*66
1521583371.87,11398,10.44,72232.3,-16.15,-16.93,-16.93,0,*61
1521583373.11,11399,10.44,72232.3,-16.17,-16.93,-16.93,0,*62
1521583374.34,11400,10.44,72236.5,-16.17,-16.93,-16.89,0,*6E
1521583375.58,11401,10.44,72236.3,-16.15,-16.93,-17.03,0,*6E
1521583376.8,11402,10.44,72238.0,-16.15,-16.93,-16.89,0,*6E
1521583378.01,11403,10.44,72238.0,-16.15,-16.93,-16.89,0,*6F
1521583379.22,11404,10.44,72238.8,-16.15,-16.89,-16.93,0,*68
1521583380.45,11405,10.44,72232.8,-16.17,-16.93,-16.93,0,*60
1521583381.67,11406,10.44,72238.5,-16.15,-16.93,-16.89,0,*6A
1521583382.9,11407,10.38,72234.0,-16.17,-16.93,-16.93,0,*62
1521583384.14,11408,10.44,72234.0,-16.17,-16.93,-16.89,0,*66
1521583385.38,11409,10.44,72232.8,-16.17,-16.93,-16.89,0,*67
1521583386.61,11410,10.44,72238.0,-16.17,-16.93,-16.93,0,*64
1521583387.82,11411,10.44,72232.8,-16.15,-16.93,-16.89,0,*6C
1521583389.03,11412,10.44,72234.8,-16.15,-16.93,-16.93,0,*64
1521583390.27,11413,10.44,72232.5,-16.17,-16.93,-16.93,0,*67
1521583391.48,11414,10.44,72236.3,-16.15,-16.93,-16.93,0,*62
1521583392.69,11415,10.44,72238.0,-16.15,-16.93,-16.93,0,*63
1521583393.9,11416,10.44,72236.8,-16.15,-16.89,-16.93,0,*6B
1521583395.15,11417,10.44,72236.3,-16.15,-17.03,-16.89,0,*62
1521583396.39,11418,10.44,72236.5,-16.15,-17.03,-16.89,0,*6D
1521583397.62,11419,10.44,72236.3,-16.17,-16.93,-16.89,0,*66
1521583398.83,11420,10.44,72242.0,-16.15,-16.93,-16.93,0,*65
1521583400.07,11421,10.44,72238.5,-16.15,-17.03,-16.89,0,*67
1521583401.34,11422,10.44,72238.3,-16.17,-16.93,-17.03,0,*6D
1521583402.58,11423,10.44,72238.5,-16.15,-17.03,-16.93,0,*6E
1521583403.79,11424,10.44,72240.3,-16.15,-16.93,-16.89,0,*6A
1521583405.0,11425,10.44,72244.3,-16.15,-16.93,-16.89,0,*6B
1521583406.21,11426,10.44,72240.0,-16.15,-16.93,-16.93,0,*63
1521583407.48,11427,10.44,72240.0,-16.17,-16.93,-17.03,0,*68
1521583408.69,11428,10.44,72238.5,-16.15,-16.93,-16.93,0,*6D
1521583409.9,11429,10.44,72240.8,-16.15,-16.93,-16.93,0,*6C
1521583411.11,11430,10.44,72240.8,-16.15,-16.93,-16.93,0,*64
1521583412.32,11431,10.44,72240.5,-16.15,-16.93,-16.89,0,*6E
1521583413.54,11432,10.44,72236.5,-16.15,-16.89,-16.93,0,*6D
1521583414.74,11433,10.44,72240.3,-16.15,-16.93,-16.93,0,*67
1521583415.96,11434,10.44,72236.0,-16.15,-16.93,-16.93,0,*60
1521583417.17,11435,10.44,72238.8,-16.15,-16.89,-16.89,0,*61
1521583418.41,11436,10.44,72236.8,-16.15,-17.03,-16.93,0,*6A
1521583419.62,11437,10.44,72242.3,-16.15,-16.93,-16.93,0,*63
1521583420.83,11438,10.44,72242.5,-16.15,-16.93,-16.93,0,*6C
1521583422.07,11439,10.44,72242.3,-16.17,-16.93,-16.93,0,*6F
1521583423.28,11440,10.44,72238.3,-16.15,-16.89,-16.93,0,*68
1521583424.49,11441,10.44,72240.8,-16.15,-16.93,-16.93,0,*62
1521583425.7,11442,10.44,72236.0,-16.15,-16.93,-16.93,0,*61
1521583426.91,11443,10.44,72238.0,-16.15,-16.93,-16.89,0,*6B
1521583428.12,11444,10.44,72238.5,-16.15,-16.89,-16.93,0,*6C
1521583429.33,11445,10.44,72236.0,-16.15,-16.93,-16.93,0,*66
1521583430.54,11446,10.44,72242.5,-16.15,-16.93,-16.93,0,*65
1521583431.75,11447,10.44,72240.3,-16.15,-16.93,-16.93,0,*64
1521583432.99,11448,10.44,72240.5,-16.15,-17.03,-16.93,0,*63
1521583434.2,11449,10.38,72238.3,-16.15,-16.93,-16.93,0,*6A
1521583435.41,11450,10.44,72240.5,-16.15,-16.89,-16.93,0,*69
1521583436.63,11451,10.44,72240.0,-16.15,-16.93,-16.89,0,*68
1521583437.83,11452,10.44,72242.3,-16.15,-16.93,-16.93,0,*60
1521583439.05,11453,10.44,72242.8,-16.15,-16.93,-16.89,0,*6A
1521583440.26,11454,10.44,72238.0,-16.15,-16.93,-16.93,0,*66
1521583441.5,11455,10.44,72238.3,-16.13,-16.83,-16.89,0,*6B
1521583442.71,11456,10.44,72240.5,-16.15,-16.93,-16.89,0,*6F
1521583443.92,11457,10.44,72242.0,-16.15,-16.93,-16.89,0,*6E
1521583445.13,11458,10.44,72242.3,-16.15,-16.89,-16.89,0,*6A
1521583446.34,11459,10.44,72240.3,-16.15,-16.93,-16.93,0,*6B
1521583447.58,11460,10.44,72242.8,-16.17,-16.93,-16.93,0,*63
1521583448.79,11461,10.44,72238.8,-16.15,-16.93,-16.89,0,*6B
1521583450.0,11462,10.44,72238.5,-16.15,-16.89,-16.93,0,*68
1521583451.24,11463,10.44,72238.8,-16.15,-17.03,-16.93,0,*6A
1521583452.48,11464,10.44,72236.5,-16.15,-17.03,-16.89,0,*66
1521583453.7,11465,10.44,72238.8,-16.15,-16.89,-16.93,0,*6F
1521583454.93,11466,10.44,72234.3,-16.17,-16.93,-16.93,0,*65
1521583456.15,11467,10.44,72236.0,-16.15,-16.89,-16.89,0,*66
1521583457.36,11468,10.44,72238.3,-16.15,-16.89,-16.93,0,*62
1521583458.6,11469,10.44,72236.8,-16.13,-16.89,-16.89,0,*6E
1521583459.84,11470,10.44,72236.5,-16.13,-16.83,-16.83,0,*66
1521583461.09,11471,10.44,72236.5,-16.13,-16.89,-16.83,0,*6D
1521583462.33,11472,10.44,72238.3,-16.13,-16.89,-16.83,0,*6E
1521583463.54,11473,10.44,72238.0,-16.15,-16.93,-16.89,0,*68
1521583464.78,11474,10.44,72238.3,-16.13,-16.89,-16.89,0,*62
1521583466.01,11475,10.44,72238.3,-16.13,-16.89,-16.89,0,*63
1521583467.26,11476,10.44,72238.5,-16.13,-16.83,-16.89,0,*6A
1521583468.49,11477,10.44,72238.3,-16.13,-16.89,-16.89,0,*61
1521583469.7,11478,10.44,72238.8,-16.15,-16.93,-16.93,0,*68
1521583470.95,11479,10.44,72242.8,-16.13,-16.83,-16.83,0,*6F
1521583472.19,11480,10.44,72238.8,-16.13,-16.89,-16.83,0,*63
1521583473.4,11481,10.44,72240.8,-16.15,-16.93,-16.93,0,*6E
1521583474.64,11482,10.44,72240.8,-16.13,-16.89,-16.83,0,*61
1521583475.89,11483,10.44,72236.0,-16.13,-16.83,-16.97,0,*6F
1521583477.12,11484,10.44,72238.5,-16.13,-16.89,-16.89,0,*6D
1521583478.33,11485,10.44,72238.5,-16.15,-16.93,-16.93,0,*6A
1521583479.54,11486,10.38,72234.0,-16.15,-16.93,-16.89,0,*62
1521583480.75,11487,10.38,72234.3,-16.15,-16.93,-16.93,0,*68
1521583481.99,11488,10.44,72236.0,-16.15,-17.03,-16.93,0,*6F
1521583483.23,11489,10.44,72238.5,-16.13,-16.89,-16.89,0,*60
1521583484.44,11490,10.44,72238.5,-16.11,-16.89,-16.89,0,*6A
1521583485.66,11491,10.44,72238.5,-16.11,-16.89,-16.83,0,*61
1521583486.87,11492,10.44,72238.0,-16.15,-16.93,-16.93,0,*6C
1521583488.11,11493,10.38,72232.3,-16.13,-16.89,-16.83,0,*61
1521583489.36,11494,10.44,72234.3,-16.13,-16.83,-16.83,0,*6C
1521583490.57,11495,10.44,72238.0,-16.15,-16.93,-16.93,0,*6B
1521583491.81,11496,10.44,72236.0,-16.13,-16.89,-16.83,0,*64
1521583493.05,11497,10.44,72242.3,-16.13,-16.89,-16.83,0,*65
1521583494.29,11498,10.44,72242.5,-16.13,-16.89,-16.89,0,*60
1521583495.54,11499,10.44,72236.5,-16.13,-16.83,-16.83,0,*61
1521583496.78,11500,10.44,72242.5,-16.13,-16.83,-16.89,0,*6A
1521583498.02,11501,10.44,72240.0,-16.15,-17.03,-16.89,0,*64
1521583499.26,11502,10.44,72240.8,-16.13,-16.89,-16.83,0,*68
1521583500.51,11503,10.44,72242.5,-16.13,-16.83,-16.83,0,*63
1521583501.74,11504,10.44,72240.0,-16.13,-16.89,-16.89,0,*64
1521583502.98,11505,10.38,72236.0,-16.13,-16.89,-16.89,0,*65
1521583504.2,11506,10.44,72244.8,-16.11,-16.89,-16.83,0,*6E
1521583505.44,11507,10.44,72242.3,-16.13,-16.89,-16.89,0,*67
1521583506.67,11508,10.44,72240.5,-16.13,-16.89,-16.89,0,*68
1521583507.92,11509,10.44,72242.8,-16.13,-16.83,-16.83,0,*69
1521583509.16,11510,10.44,72244.3,-16.13,-16.83,-16.89,0,*6B
1521583510.4,11511,10.44,72242.5,-16.13,-16.89,-16.89,0,*60
1521583511.61,11512,10.38,72240.3,-16.15,-16.93,-16.89,0,*6E
1521583512.85,11513,10.44,72242.0,-16.13,-16.83,-16.89,0,*68
1521583514.09,11514,10.44,72242.0,-16.13,-16.83,-16.89,0,*6F
1521583515.33,11515,10.44,72244.0,-16.13,-16.89,-16.97,0,*6B
1521583516.57,11516,10.44,72244.0,-16.13,-16.89,-16.83,0,*6D
1521583517.81,11517,10.38,72238.8,-16.13,-16.89,-16.89,0,*66
1521583519.02,11518,10.44,72240.3,-16.11,-16.89,-16.83,0,*61
1521583520.26,11519,10.44,72240.3,-16.13,-16.83,-16.89,0,*62
1521583521.51,11520,10.44,72238.8,-16.13,-16.83,-16.83,0,*62
1521583522.75,11521,10.44,72238.0,-16.13,-16.97,-16.83,0,*66
1521583523.99,11522,10.44,72238.0,-16.13,-16.97,-16.89,0,*6F
1521583525.23,11523,10.44,72238.8,-16.13,-16.89,-16.89,0,*61
1521583526.47,11524,10.44,72236.3,-16.13,-16.89,-16.89,0,*66
1521583527.71,11525,10.44,72238.8,-16.13,-16.89,-16.83,0,*6D
1521583528.95,11526,10.44,72238.5,-16.13,-16.83,-16.89,0,*6E
1521583530.16,11527,10.44,72240.5,-16.11,-16.89,-16.89,0,*67
1521583531.4,11528,10.44,72238.8,-16.13,-16.89,-16.83,0,*60
1521583532.64,11529,10.44,72240.8,-16.13,-16.89,-16.89,0,*6B
1521583533.85,11530,10.44,72236.3,-16.11,-16.89,-16.89,0,*61
1521583535.09,11531,10.38,72232.8,-16.13,-16.89,-16.89,0,*62
1521583536.3,11532,10.38,72236.3,-16.11,-16.89,-16.89,0,*63
1521583537.54,11533,10.44,72236.8,-16.13,-16.97,-16.89,0,*6F
1521583538.78,11534,10.44,72240.0,-16.13,-16.89,-16.83,0,*6D
1521583540.03,11535,10.44,72240.0,-16.13,-16.89,-16.83,0,*6C
1521583541.26,11536,10.38,72234.3,-16.13,-16.97,-16.89,0,*6A
1521583542.5,11537,10.44,72236.3,-16.13,-16.97,-16.97,0,*64
1521583543.74,11538,10.44,72240.5,-16.13,-16.89,-16.89,0,*6B
1521583544.98,11539,10.44,72238.8,-16.13,-16.89,-16.83,0,*60
1521583546.23,11540,10.44,72236.5,-16.13,-16.89,-16.83,0,*6E
1521583547.46,11541,10.44,72242.0,-16.13,-16.89,-16.89,0,*65
1521583548.71,11542,10.44,72240.8,-16.13,-16.89,-16.83,0,*6C
1521583549.94,11543,10.44,72238.8,-16.13,-16.89,-16.89,0,*67
1521583551.18,11544,10.44,72242.5,-16.13,-16.89,-16.89,0,*60
1521583552.42,11545,10.44,72236.5,-16.13,-16.89,-16.89,0,*61
1521583553.63,11546,10.44,72238.3,-16.15,-16.93,-16.93,0,*64
1521583554.87,11547,10.44,72238.3,-16.13,-16.89,-16.89,0,*63
1521583556.08,11548,10.44,72238.0,-16.11,-16.89,-16.89,0,*6E
1521583557.32,11549,10.44,72238.3,-16.13,-16.97,-16.89,0,*62
1521583558.53,11550,10.44,72236.8,-16.11,-16.97,-16.89,0,*68
1521583559.77,11551,10.44,72238.3,-16.13,-16.89,-16.89,0,*64
1521583561.0,11552,10.44,72238.0,-16.13,-16.89,-16.89,0,*67
1521583562.22,11553,10.44,72240.8,-16.11,-16.89,-16.89,0,*64
1521583563.45,11554,10.44,72238.0,-16.13,-16.89,-16.89,0,*61
1521583564.69,11555,10.44,72238.5,-16.13,-16.89,-16.89,0,*60
1521583565.93,11556,10.44,72240.5,-16.13,-16.83,-16.89,0,*69
1521583567.17,11557,10.44,72242.3,-16.13,-16.89,-16.89,0,*62
1521583568.41,11558,10.44,72240.0,-16.13,-16.97,-16.89,0,*62
1521583569.62,11559,10.44,72244.5,-16.11,-16.89,-16.89,0,*6E
1521583570.86,11560,10.44,72242.5,-16.13,-16.97,-16.89,0,*69
1521583572.1,11561,10.44,72244.0,-16.13,-16.97,-16.97,0,*67
1521583573.33,11562,10.44,72242.5,-16.13,-16.97,-16.89,0,*6B
1521583574.54,11563,10.44,72240.0,-16.15,-16.93,-16.93,0,*63
1521583575.78,11564,10.38,72242.5,-16.13,-16.83,-16.89,0,*68
1521583577.02,11565,10.44,72240.8,-16.13,-16.97,-16.89,0,*6C
1521583578.26,11566,10.44,72238.8,-16.13,-16.97,-16.89,0,*6F
1521583579.49,11567,10.44,72240.8,-16.13,-16.89,-16.89,0,*61
1521583580.74,11568,10.44,72242.5,-16.13,-16.97,-16.97,0,*6E
1521583581.97,11569,10.44,72238.8,-16.13,-16.97,-16.97,0,*6F
1521583583.21,11570,10.44,72236.8,-16.13,-16.97,-16.97,0,*67
1521583584.43,11571,10.44,72238.0,-16.11,-16.97,-16.97,0,*64
1521583585.64,11572,10.44,72242.5,-16.11,-16.89,-16.97,0,*68
1521583586.88,11573,10.44,72238.5,-16.13,-16.97,-16.83,0,*61
1521583588.13,11574,10.44,72242.3,-16.13,-16.97,-16.83,0,*66
1521583589.37,11575,10.38,72240.0,-16.13,-16.89,-16.89,0,*62
1521583590.6,11576,10.44,72240.8,-16.13,-16.97,-16.89,0,*6E
1521583591.84,11577,10.44,72242.0,-16.13,-16.97,-16.89,0,*6F
1521583593.05,11578,10.44,72240.0,-16.11,-16.83,-16.89,0,*67
1521583594.27,11579,10.44,72242.3,-16.11,-16.89,-16.89,0,*6C
1521583595.54,11580,10.44,72240.5,-16.13,-16.83,-17.03,0,*61
1521583596.75,11581,10.44,72246.8,-16.11,-16.97,-16.89,0,*64
1521583597.99,11582,10.44,72242.8,-16.13,-16.97,-16.97,0,*6A
1521583599.22,11583,10.44,72244.3,-16.13,-16.97,-16.89,0,*64
1521583600.46,11584,10.44,72246.3,-16.13,-16.97,-16.89,0,*63
1521583601.7,11585,10.44,72244.5,-16.13,-16.97,-16.89,0,*62
1521583602.91,11586,10.44,72244.3,-16.11,-16.97,-16.89,0,*63
1521583604.15,11587,10.44,72244.3,-16.13,-16.97,-16.89,0,*60
1521583605.36,11588,10.44,72244.3,-16.11,-16.89,-16.89,0,*62
1521583606.6,11589,10.44,72242.0,-16.13,-16.97,-16.89,0,*6E
1521583607.84,11590,10.38,72242.8,-16.13,-16.89,-16.97,0,*66
1521583609.05,11591,10.44,72242.3,-16.11,-16.97,-16.89,0,*65
1521583610.26,11592,10.38,72240.0,-16.11,-16.97,-16.89,0,*66
1521583611.47,11593,10.44,72240.0,-16.11,-16.97,-16.89,0,*67
1521583612.71,11594,10.44,72246.5,-16.13,-16.97,-16.97,0,*6D
1521583613.95,11595,10.44,72244.3,-16.13,-16.89,-16.97,0,*63
1521583615.19,11596,10.44,72240.0,-16.13,-16.97,-16.89,0,*60
1521583616.43,11597,10.44,72244.5,-16.13,-16.89,-16.89,0,*6E
1521583617.66,11598,10.44,72242.3,-16.13,-16.89,-16.89,0,*61
1521583618.9,11599,10.44,72246.3,-16.13,-16.97,-16.89,0,*6F
1521583620.14,11600,10.44,72244.8,-16.13,-16.97,-16.97,0,*63
1521583621.38,11601,10.38,72242.5,-16.13,-16.89,-16.97,0,*6D
1521583622.62,11602,10.38,72242.0,-16.13,-16.97,-16.89,0,*6E
1521583623.83,11603,10.44,72240.3,-16.11,-16.97,-16.89,0,*6D
1521583625.04,11604,10.44,72246.0,-16.11,-16.97,-16.97,0,*65
1521583626.25,11605,10.38,72242.8,-16.11,-16.89,-16.89,0,*64
1521583627.5,11606,10.44,72242.8,-16.13,-16.97,-16.83,0,*60
1521583628.74,11607,10.44,72244.5,-16.13,-16.97,-16.97,0,*64
1521583629.98,11608,10.44,72246.5,-16.13,-16.97,-16.97,0,*6B
1521583631.21,11609,10.44,72246.0,-16.13,-16.97,-16.89,0,*65
1521583632.45,11610,10.44,72246.3,-16.13,-16.97,-16.89,0,*6D
1521583633.66,11611,10.44,72246.8,-16.11,-16.97,-16.97,0,*61
1521583634.9,11612,10.38,72242.3,-16.13,-16.97,-16.97,0,*60
1521583636.14,11613,10.38,72240.3,-16.13,-16.97,-16.97,0,*61
1521583637.38,11614,10.38,72242.3,-16.13,-16.97,-16.97,0,*66
1521583638.62,11615,10.44,72244.5,-16.13,-16.97,-16.89,0,*68
1521583639.88,11616,10.44,72250.3,-16.13,-17.03,-16.89,0,*67
1521583641.12,11617,10.44,72244.0,-16.13,-16.89,-16.89,0,*65
1521583642.36,11618,10.38,72244.0,-16.13,-16.89,-16.89,0,*6A
1521583643.65,11619,10.44,72244.8,-16.13,-17.03,-17.03,0,*6B
1521583644.89,11620,10.44,72246.5,-16.13,-16.89,-16.97,0,*6E
1521583646.13,11621,10.44,72248.5,-16.13,-16.97,-16.89,0,*6F
1521583647.37,11622,10.38,72244.0,-16.13,-16.97,-16.97,0,*63
1521583648.61,11623,10.44,72248.0,-16.13,-16.97,-16.97,0,*62
1521583649.88,11624,10.44,72250.3,-16.13,-17.03,-16.89,0,*66
1521583651.09,11625,10.38,72246.0,-16.11,-16.97,-16.89,0,*69
1521583652.3,11626,10.44,72246.3,-16.11,-16.97,-16.97,0,*65
1521583653.51,11627,10.38,72246.5,-16.11,-16.97,-16.97,0,*64
1521583654.75,11628,10.44,72248.5,-16.13,-16.97,-16.97,0,*69
1521583655.96,11629,10.44,72244.5,-16.11,-16.97,-16.89,0,*65
1521583657.2,11630,10.44,72244.8,-16.13,-16.97,-16.89,0,*6F
1521583658.42,11631,10.44,72246.3,-16.11,-16.97,-16.97,0,*63
1521583659.65,11632,10.44,72246.3,-16.13,-16.97,-16.97,0,*62
1521583660.92,11633,10.44,72244.8,-16.13,-17.03,-16.89,0,*60
1521583662.16,11634,10.44,72246.8,-16.13,-16.97,-16.89,0,*6B
1521583663.4,11635,10.44,72246.3,-16.13,-16.97,-16.97,0,*65
1521583664.66,11636,10.38,72242.5,-16.13,-17.03,-16.97,0,*6A
1521583665.9,11637,10.44,72246.8,-16.13,-16.97,-16.89,0,*68
1521583667.14,11638,10.38,72246.5,-16.13,-16.97,-16.97,0,*68
1521583668.38,11639,10.38,72242.0,-16.13,-16.89,-16.89,0,*69
1521583669.62,11640,10.38,72242.5,-16.13,-16.97,-16.97,0,*67
1521583670.83,11641,10.38,72244.0,-16.11,-16.97,-16.89,0,*6B
1521583672.07,11642,10.44,72246.8,-16.13,-16.97,-16.89,0,*6A
1521583673.3,11643,10.38,72244.0,-16.13,-16.97,-16.89,0,*6B
1521583674.54,11644,10.44,72246.5,-16.13,-16.97,-16.97,0,*63
1521583675.76,11645,10.44,72246.3,-16.11,-16.97,-16.97,0,*60
1521583677.0,11646,10.38,72244.3,-16.13,-16.97,-16.97,0,*61
1521583678.24,11647,10.38,72246.5,-16.11,-17.03,-16.97,0,*6E
1521583679.48,11648,10.38,72246.0,-16.13,-16.89,-16.97,0,*60
1521583680.69,11649,10.38,72244.8,-16.11,-16.97,-16.97,0,*6C
1521583681.93,11650,10.38,72244.3,-16.11,-17.03,-16.89,0,*67
1521583683.19,11651,10.38,72244.8,-16.13,-17.03,-16.89,0,*64
1521583684.43,11652,10.44,72246.8,-16.13,-16.97,-16.89,0,*6B